Location: Garrison
(47.6536°N, 101.4238°W)
Time: 20:19:12
(UTC+00:00)

Envisat - Visible Passes

Search period start: 29 November 2020 00:00
Search period end: 09 December 2020 00:00
Orbit: 764 x 766 km, 98.1° (Epoch: 29 November)

Date Brightness Start Highest point End Pass type
(mag) Time Alt. Az. Time Alt. Az. Time Alt. Az.
29 Nov 6.0 01:11:31 10° SW 01:14:38 16° W 01:17:46 10° NW visible
29 Nov 5.6 11:36:19 10° NE 11:40:02 20° E 11:43:43 10° SE visible
29 Nov 3.0 13:14:26 10° N 13:19:27 60° WNW 13:24:26 10° SSW visible
30 Nov 4.9 00:32:53 10° SSW 00:37:27 33° W 00:42:02 10° NNW visible
30 Nov 3.4 12:37:35 10° NNE 12:42:41 68° ESE 12:47:43 10° S visible
30 Nov 3.4 23:55:25 10° S 00:00:28 68° WSW 00:05:34 10° NNW visible
01 Dec 4.8 12:01:07 10° NNE 12:05:42 33° E 12:10:14 10° SSE visible
02 Dec 5.7 00:59:25 10° SW 01:03:07 20° W 01:06:50 10° NW visible
02 Dec 5.9 11:25:24 10° NE 11:28:30 16° E 11:31:36 10° SE visible
02 Dec 2.9 13:03:00 10° N 13:08:06 74° WNW 13:13:09 10° SSW visible
03 Dec 4.4 00:21:13 10° SSW 00:25:59 41° W 00:30:48 10° NNW visible
03 Dec 3.8 12:26:15 10° NNE 12:31:16 54° E 12:36:13 10° S visible
03 Dec 3.1 23:43:59 10° SSE 23:49:04 84° WSW 23:54:11 10° NNW visible
04 Dec 6.2 01:27:03 10° WSW 01:28:52 12° W 01:30:42 10° WNW visible
04 Dec 5.2 11:49:56 10° NE 11:54:13 26° E 11:58:27 10° SSE visible
04 Dec 3.3 13:28:35 10° N 13:33:26 45° WNW 13:38:14 10° SW visible
05 Dec 5.4 00:47:29 10° SSW 00:51:36 25° W 00:55:46 10° NW visible
05 Dec 6.1 11:14:43 10° ENE 11:16:58 13° E 11:19:12 10° ESE visible
05 Dec 3.0 12:51:35 10° NNE 12:56:43 90° ESE 13:01:48 10° SSW visible
06 Dec 4.0 00:09:37 10° S 00:14:32 51° W 00:19:31 10° NNW visible
06 Dec 4.2 12:14:57 10° NNE 12:19:49 44° E 12:24:39 10° S visible
06 Dec 3.0 23:32:37 10° SSE 23:37:41 79° ENE 23:42:47 10° NNW visible
07 Dec 6.0 01:14:28 10° WSW 01:17:19 15° W 01:20:12 10° NW visible
07 Dec 5.5 11:38:50 10° NE 11:42:43 22° E 11:46:34 10° SE visible
07 Dec 3.1 13:17:06 10° N 13:22:05 55° WNW 13:27:02 10° SSW visible
08 Dec 5.0 00:35:40 10° SSW 00:40:07 30° W 00:44:36 10° NNW visible
08 Dec 3.2 12:40:13 10° NNE 12:45:19 73° ESE 12:50:23 10° S visible
